Theta_e
310 311 312 313 311 312 312 311 311 310 310 311 310 309 309 309 308 308 309 315 314 314 315 316 318 319 319 320 321 320 316 316 314 342 349 346 347 347 349 348 349 350 349 347
311 313 312 312 313 313 313 314 313 311 311 312 310 311 309 308 309 309 317 316 314 313 314 316 317 317 317 318 318 321 320 316 314 322 343 345 342 345 345 342 347 349 349 348
312 314 313 314 314 315 314 314 313 312 311 310 310 309 311 311 311 315 315 315 314 314 315 315 315 315 315 315 316 317 320 322 315 316 341 345 345 344 344 345 343 344 346 347
312 312 315 315 315 313 315 312 312 312 311 310 310 311 309 313 313 315 315 315 315 315 314 313 313 312 312 312 312 313 313 318 323 319 331 341 343 343 341 339 334 328 342 346
314 315 316 314 315 313 312 312 312 311 310 310 310 310 309 312 315 315 315 317 316 315 314 313 312 312 311 311 310 310 310 312 315 325 323 339 341 342 340 338 334 332 337 345
313 313 314 314 313 312 311 311 308 307 307 310 311 312 312 311 316 317 317 317 316 314 312 312 311 310 309 309 308 308 309 309 311 314 325 326 339 340 339 339 340 338 340 342
314 314 315 314 315 312 311 308 308 309 308 310 311 314 312 311 311 316 316 316 316 312 310 311 310 309 309 307 306 307 307 309 309 312 316 324 328 330 337 337 337 339 338 339
317 318 316 315 316 315 313 310 308 311 312 312 312 315 315 312 312 314 315 315 311 310 308 308 308 308 308 306 307 306 306 307 308 310 314 321 329 330 331 336 336 335 336 333
316 317 314 315 313 313 313 310 309 308 311 317 314 313 312 312 315 315 315 313 310 308 307 307 308 307 306 307 307 306 306 306 307 309 313 319 325 330 332 336 335 334 333 332
315 315 314 315 313 312 311 310 311 306 313 319 315 314 316 313 311 310 311 310 310 308 306 306 307 306 307 306 306 305 305 306 307 310 312 318 324 332 330 336 336 335 329 332
314 311 315 314 314 313 312 311 313 311 318 316 317 313 309 310 310 309 309 309 308 307 306 306 305 306 307 305 305 305 305 306 307 309 310 316 323 332 334 335 335 328 331 333
313 310 313 314 312 312 311 312 312 308 313 315 316 318 313 311 309 310 311 313 308 306 306 305 305 307 306 305 305 305 305 306 307 308 309 311 322 328 334 335 335 335 330 331
312 308 308 311 308 311 313 312 312 314 314 318 320 318 311 310 312 312 312 309 307 308 308 308 307 305 305 305 305 305 305 306 306 307 308 309 314 324 328 331 333 332 331 331
316 311 313 313 312 308 312 312 314 317 320 318 319 317 315 314 312 311 308 308 308 308 308 306 305 304 304 304 304 305 306 306 306 306 307 308 311 319 323 324 326 325 326 331
312 312 312 313 313 313 313 314 314 315 315 319 318 318 316 314 312 309 308 307 308 307 305 304 304 304 304 304 304 304 305 305 305 305 306 307 309 312 323 323 324 322 324 330
307 311 312 312 313 313 315 315 315 316 316 316 316 316 311 309 308 309 309 307 306 305 304 304 304 305 304 303 303 303 304 303 304 304 305 306 308 312 321 323 324 325 330 331
308 308 310 313 314 317 315 315 316 316 315 310 313 314 309 312 311 310 308 306 305 305 304 304 305 304 302 302 302 302 303 303 303 304 304 306 307 312 325 327 326 327 328 329
308 309 310 317 312 310 310 315 315 314 313 312 313 311 312 311 310 308 305 305 303 303 304 303 303 302 301 301 301 302 302 303 303 303 304 306 307 319 325 325 325 324 325 323
307 309 308 307 307 309 309 314 310 313 313 310 312 312 311 309 307 306 303 303 303 302 301 301 302 301 301 301 301 302 302 303 303 303 304 306 307 318 323 322 320 320 322 319
306 310 307 306 308 310 307 311 310 311 313 311 312 311 309 306 307 306 303 303 302 301 301 301 300 300 300 301 302 302 303 303 304 303 304 306 307 318 322 321 317 315 315 311
306 305 306 306 310 309 308 308 310 312 314 311 312 310 305 305 304 303 302 302 301 301 300 300 300 300 301 301 302 303 303 305 305 305 304 306 307 315 321 319 314 311 308 307
306 302 302 307 309 306 307 308 309 308 308 310 308 305 304 302 303 303 302 302 301 301 300 300 300 300 300 301 302 304 307 307 307 306 305 306 308 319 319 314 311 308 306 304
306 307 310 309 305 304 307 307 307 309 309 307 303 303 302 302 303 302 302 301 300 300 300 299 299 300 300 301 303 306 308 308 307 305 305 307 316 316 313 310 308 306 306 305
305 304 307 308 307 307 307 309 308 309 308 305 302 301 302 302 302 301 300 300 300 299 298 298 299 300 301 303 305 306 305 305 304 304 306 314 313 312 311 309 308 307 306 305
309 308 309 308 308 308 309 309 308 306 304 300 302 302 301 302 300 299 299 299 298 297 297 297 298 300 302 303 305 304 304 304 304 306 313 312 311 310 308 308 308 307 306 306
306 307 310 311 309 310 310 308 306 302 300 301 301 302 301 299 299 299 298 297 296 297 297 298 299 301 303 305 304 305 304 305 307 313 311 307 306 306 305 304 304 306 306 305
Wind_Speed
4 5 2 5 5 5 3 3 5 5 6 4 7 9 9 11 9 10 5 5 7 7 9 18 22 26 27 26 26 22 18 21 22 23 24 23 29 36 34 33 31 32 31 31
5 2 6 3 3 4 4 3 4 6 6 4 10 22 12 9 7 2 3 5 7 7 9 14 21 27 30 29 30 36 23 17 21 29 30 27 32 34 40 38 34 33 31 30
6 7 0 4 1 0 2 3 3 6 5 5 7 7 4 2 2 4 3 3 4 5 7 9 15 20 29 31 32 32 35 28 15 20 28 28 21 18 21 28 30 32 33 34
5 4 2 3 2 3 3 3 4 7 4 8 2 7 4 1 7 4 5 5 5 5 5 6 12 20 24 28 28 30 38 34 29 9 23 27 25 24 33 39 36 37 37 36
8 2 2 2 1 2 6 3 5 5 3 4 4 1 7 2 5 7 6 5 5 2 3 6 9 18 21 23 26 29 35 38 38 27 13 22 25 26 30 38 40 39 39 38
4 4 2 1 2 3 3 4 3 4 2 2 2 4 5 4 4 3 2 6 4 6 8 7 12 19 23 30 31 29 31 36 38 35 22 18 25 30 28 26 33 35 34 33
7 4 1 2 3 2 7 6 4 6 4 5 1 4 9 8 7 6 7 6 1 5 7 8 9 14 21 28 28 34 35 34 37 38 31 24 21 29 32 34 29 29 30 27
1 6 3 1 2 4 1 5 4 5 3 6 5 6 6 4 5 4 5 6 6 4 5 6 8 15 19 23 30 34 34 36 40 36 36 28 21 21 28 33 31 25 20 23
2 4 4 2 3 4 2 1 2 1 1 4 4 6 9 6 6 6 8 6 8 7 6 8 11 14 18 27 31 29 33 35 38 36 36 30 24 19 25 28 26 21 12 17
3 6 4 3 2 1 4 7 2 3 3 5 5 5 8 7 9 9 8 8 8 5 8 7 9 17 22 29 27 29 28 31 36 33 33 27 26 21 22 25 25 20 14 16
3 3 5 2 5 7 2 2 2 3 3 4 4 5 6 7 11 9 8 8 7 7 8 9 11 17 24 25 25 28 27 29 33 31 32 28 25 21 18 25 25 21 18 17
3 4 5 12 12 2 5 8 7 4 5 5 3 13 11 11 9 6 8 14 3 7 9 8 10 20 24 22 22 23 25 25 28 30 30 30 23 17 15 19 22 18 14 14
2 2 5 9 5 1 3 4 4 1 3 13 9 9 2 5 7 12 7 7 9 12 14 14 15 14 22 21 24 22 25 25 27 29 29 29 23 20 13 8 12 10 11 11
6 5 8 8 13 4 7 10 9 8 6 11 13 23 18 17 9 8 5 6 9 14 15 16 15 14 21 20 24 23 22 24 27 25 28 30 24 20 14 13 10 7 7 14
3 6 7 12 19 14 17 19 19 16 20 13 22 17 19 14 8 6 5 7 15 19 19 18 15 14 19 20 24 25 24 22 23 23 25 28 27 21 15 12 12 9 24 20
1 6 3 5 12 12 13 16 19 18 16 14 17 15 3 6 6 6 12 13 19 19 18 17 15 19 20 25 25 24 22 23 21 22 25 28 26 24 12 12 10 9 12 11
3 2 1 5 5 9 7 6 3 3 2 4 5 9 5 10 18 18 13 16 20 19 16 16 19 17 23 25 27 25 23 22 20 21 24 24 23 25 13 6 10 14 14 12
4 2 1 5 4 3 4 1 2 3 9 8 11 4 9 18 21 17 12 18 16 15 20 21 18 24 28 27 28 28 22 20 18 19 21 21 20 16 6 5 10 16 16 17
2 1 4 2 3 12 6 4 3 5 17 7 0 9 19 14 21 21 7 7 18 23 22 24 26 29 30 29 27 26 25 18 19 19 20 21 17 14 9 12 15 21 21 19
1 2 3 2 3 5 4 3 6 1 11 3 13 14 16 16 14 23 23 20 21 24 25 26 30 30 28 29 26 23 22 17 19 19 20 20 16 11 10 9 17 21 23 24
5 4 2 3 5 8 4 5 3 2 4 17 17 14 14 15 12 25 24 23 25 24 28 30 28 26 28 29 25 23 24 22 20 23 21 20 15 9 13 14 18 24 25 30
3 1 3 2 3 7 4 12 1 6 18 17 12 13 17 20 23 21 21 20 21 22 25 27 24 25 28 27 24 22 24 27 18 22 21 18 12 12 20 24 23 25 24 33
3 5 2 6 6 9 18 12 13 11 14 12 7 14 19 22 21 21 20 20 18 19 23 25 24 24 27 26 26 23 22 21 21 21 20 17 11 23 26 27 26 24 24 29
4 1 4 3 6 9 12 13 12 11 16 12 11 19 19 20 20 20 18 17 15 18 19 24 22 20 22 24 24 19 18 15 20 18 17 14 24 24 23 24 22 23 24 25
5 3 5 11 14 12 12 14 18 12 11 12 16 18 18 18 19 19 17 17 15 18 23 23 21 20 23 23 13 11 11 16 16 16 17 23 27 24 24 21 19 20 19 23
3 4 3 6 15 16 16 14 11 10 14 16 19 17 15 16 18 17 16 16 17 17 24 23 23 21 20 15 9 10 12 17 18 19 22 25 26 25 24 28 30 24 23 24
Wind_Direction
3 56 259 248 178 209 234 203 243 262 273 306 257 269 260 270 288 272 333 328 328 336 311 338 344 1 6 8 355 336 292 269 244 221 219 224 222 235 234 236 239 240 240 238
18 270 231 260 179 195 201 226 273 289 285 310 290 287 294 230 247 305 215 310 339 337 341 346 350 356 3 357 360 6 351 295 262 232 218 220 222 229 229 234 232 233 238 241
160 245 191 229 178 44 281 179 264 246 294 257 288 285 238 298 257 281 309 324 325 303 329 342 343 349 355 354 359 2 11 12 318 256 227 220 225 227 221 227 231 236 237 238
226 296 292 282 233 122 321 195 247 279 326 302 92 287 312 1 297 257 300 314 320 357 354 344 351 347 350 347 348 356 11 15 9 317 237 222 217 209 220 224 226 233 234 233
251 286 295 266 233 153 233 326 270 286 268 3 326 41 268 295 265 272 310 298 277 317 48 15 338 337 347 347 347 352 1 4 8 5 266 242 230 230 238 220 224 229 234 232
244 296 75 117 28 109 324 331 13 50 72 14 249 104 271 260 214 280 287 265 249 4 349 2 2 341 348 344 346 347 354 352 352 358 353 262 247 240 239 239 221 226 230 234
336 334 336 66 25 4 43 42 336 347 0 234 355 329 243 256 226 234 262 275 322 11 351 338 343 336 342 336 338 343 344 342 342 344 346 335 273 255 247 239 235 224 222 224
42 319 338 175 206 245 218 145 154 271 246 273 286 243 254 247 262 240 268 237 211 297 308 307 312 320 321 322 338 338 336 333 332 335 336 331 315 265 256 248 240 235 240 227
295 257 282 280 171 126 183 175 190 156 255 286 246 288 304 276 264 273 267 240 254 264 286 294 297 290 303 334 337 333 327 324 325 326 327 324 317 276 253 244 237 235 222 251
259 290 251 297 342 157 165 160 57 352 268 253 251 252 238 285 286 298 294 280 271 277 294 300 315 314 326 332 328 328 322 313 317 321 324 316 313 285 252 233 222 202 220 230
169 142 273 8 222 213 196 196 133 184 199 227 290 247 217 237 278 272 270 280 278 290 301 307 304 301 313 320 324 320 318 314 316 318 322 321 311 291 250 229 218 190 203 223
201 183 246 248 257 207 193 205 161 152 220 230 246 271 247 265 263 259 285 316 315 297 290 294 289 300 313 314 313 309 312 314 321 324 322 326 309 284 241 227 212 190 194 226
199 304 324 321 360 350 198 206 209 96 28 251 265 265 275 282 301 298 307 326 322 312 311 306 310 314 312 307 309 304 305 308 313 319 322 320 318 298 265 204 194 182 196 221
197 202 200 240 266 229 262 262 237 221 254 262 248 280 293 291 287 304 334 319 303 299 302 304 310 308 305 302 306 304 301 305 310 317 316 313 323 319 257 228 207 193 299 249
144 240 234 250 262 264 269 272 270 245 251 257 276 277 282 297 317 311 301 289 307 309 311 306 305 303 303 301 304 305 301 302 308 312 310 306 320 324 251 234 216 190 211 219
236 276 299 273 257 260 267 264 260 270 269 262 267 277 7 312 296 298 305 306 302 302 297 298 305 309 306 305 302 302 300 298 302 303 300 303 310 321 281 257 239 217 199 194
231 234 299 269 320 310 286 261 267 289 290 205 285 303 341 330 315 310 305 296 294 294 299 301 310 304 302 299 297 293 291 291 292 294 295 301 301 316 301 253 199 193 188 172
200 209 215 279 330 275 240 88 190 309 269 268 281 340 330 312 302 305 287 284 295 306 309 306 301 302 301 296 290 289 285 284 285 284 287 291 291 307 273 208 169 153 153 158
168 120 304 252 242 287 291 47 351 296 297 289 351 319 317 323 312 301 264 321 308 304 302 300 301 297 295 291 289 287 285 279 272 271 277 281 280 297 217 172 151 141 139 142
327 208 156 335 267 286 247 299 305 145 291 158 330 310 320 327 311 305 322 311 303 300 300 300 298 295 290 289 290 282 276 269 258 261 266 275 273 285 220 183 142 137 132 121
312 310 230 242 245 276 218 326 326 3 295 314 309 306 307 305 289 295 304 302 301 301 301 298 294 290 287 288 284 279 277 263 252 259 267 268 259 264 207 164 147 130 123 118
259 185 250 299 270 284 180 351 106 264 301 286 290 295 300 295 298 298 298 299 300 297 297 295 293 290 289 284 281 271 261 259 247 253 259 255 251 193 161 139 134 128 126 112
277 202 254 204 233 270 296 293 288 282 294 291 278 302 302 296 298 300 300 299 296 294 293 296 290 287 284 284 278 258 248 246 232 233 240 240 189 149 146 135 131 124 123 122
265 191 248 314 261 275 295 300 295 304 296 302 302 299 297 296 297 299 300 299 301 301 296 295 291 285 286 292 291 245 259 218 200 205 218 186 131 130 129 129 131 134 131 129
262 248 238 262 282 300 281 304 296 307 313 301 302 304 299 299 304 301 302 303 300 298 297 295 288 285 285 289 263 230 198 188 185 193 166 128 120 120 114 112 126 130 140 146
204 242 282 284 296 290 298 295 318 313 315 313 310 311 311 304 301 304 303 302 299 297 298 295 290 285 282 283 203 196 187 182 178 144 125 120 118 115 110 106 100 117 134 139